Time,TemperatureF,DewpointF,PressureIn,WindDirection,WindDirectionDegrees,WindSpeedMPH,WindSpeedGustMPH,Humidity,HourlyPrecipIn,Conditions,Clouds,dailyrainin,SoftwareType,DateUTC
2013-03-08 00:00:00,58.6,52.5,30.21,NNW,328,0.0,0.0,80,0.00,,---,0.00,VWS V14.01,2013-03-08 05:00:00,
2013-03-08 00:02:00,58.6,52.5,30.21,NNW,328,0.0,0.0,80,0.00,,---,0.00,VWS V14.01,2013-03-08 05:02:00,
2013-03-08 00:05:00,58.6,52.5,30.21,NNW,328,0.0,0.0,80,0.00,,---,0.00,VWS V14.01,2013-03-08 05:05:00,
2013-03-08 00:08:00,58.6,52.5,30.21,NNW,328,0.0,0.0,80,0.00,,---,0.00,VWS V14.01,2013-03-08 05:08:00,
2013-03-08 00:10:00,58.6,52.5,30.21,NNW,328,0.0,0.0,80,0.00,,---,0.00,VWS V14.01,2013-03-08 05:10:00,
2013-03-08 00:13:00,58.5,52.3,30.21,NNW,328,0.0,0.0,80,0.00,,---,0.00,VWS V14.01,2013-03-08 05:13:00,
2013-03-08 00:15:00,58.5,52.3,30.21,NNW,328,0.0,0.0,80,0.00,,---,0.00,VWS V14.01,2013-03-08 05:15:00,
2013-03-08 00:18:00,58.5,52.3,30.21,NNW,328,0.0,0.0,80,0.00,,---,0.00,VWS V14.01,2013-03-08 05:18:00,
2013-03-08 00:20:00,58.5,52.3,30.21,NNW,328,0.0,0.0,80,0.00,,---,0.00,VWS V14.01,2013-03-08 05:20:00,
2013-03-08 00:23:00,58.3,52.2,30.21,NNW,328,0.0,0.0,80,0.00,,---,0.00,VWS V14.01,2013-03-08 05:23:00,
2013-03-08 00:25:00,58.3,52.2,30.21,NNW,328,0.0,0.0,80,0.00,,---,0.00,VWS V14.01,2013-03-08 05:25:00,
2013-03-08 00:28:00,58.3,52.2,30.21,NNW,328,0.0,0.0,80,0.00,,---,0.00,VWS V14.01,2013-03-08 05:28:00,
2013-03-08 00:30:00,58.3,52.2,30.21,NNW,328,0.0,0.0,80,0.00,,---,0.00,VWS V14.01,2013-03-08 05:30:00,
2013-03-08 00:33:00,58.1,52.0,30.21,NNW,328,0.0,0.0,80,0.00,,---,0.00,VWS V14.01,2013-03-08 05:33:00,
2013-03-08 00:35:00,58.1,52.0,30.21,NNW,328,3.1,3.1,80,0.00,,---,0.00,VWS V14.01,2013-03-08 05:35:00,
2013-03-08 00:38:00,58.1,52.0,30.21,NW,326,3.1,3.1,80,0.00,,---,0.00,VWS V14.01,2013-03-08 05:38:00,
2013-03-08 00:40:00,58.1,52.0,30.21,NW,326,2.7,2.7,80,0.00,,---,0.00,VWS V14.01,2013-03-08 05:40:00,
2013-03-08 00:41:00,58.1,52.0,30.21,NW,326,2.7,2.7,80,0.00,,---,0.00,VWS V14.01,2013-03-08 05:41:00,
2013-03-08 00:43:00,57.9,51.8,30.21,North,353,3.1,3.1,80,0.00,,---,0.00,VWS V14.01,2013-03-08 05:43:00,
2013-03-08 00:45:00,57.9,51.8,30.21,North,0,0.0,0.0,80,0.00,,---,0.00,VWS V14.01,2013-03-08 05:45:00,
2013-03-08 00:46:00,57.9,51.8,30.21,North,0,0.0,0.0,80,0.00,,---,0.00,VWS V14.01,2013-03-08 05:46:00,
2013-03-08 00:48:00,57.9,51.8,30.21,North,357,2.7,2.7,80,0.00,,---,0.00,VWS V14.01,2013-03-08 05:48:00,
2013-03-08 00:51:00,57.9,51.8,30.21,North,357,0.0,0.0,80,0.00,,---,0.00,VWS V14.01,2013-03-08 05:51:00,
2013-03-08 00:53:00,57.9,52.1,30.21,North,357,2.7,2.7,81,0.00,,---,0.00,VWS V14.01,2013-03-08 05:53:00,
2013-03-08 00:56:00,57.9,52.1,30.21,North,357,0.0,0.0,81,0.00,,---,0.00,VWS V14.01,2013-03-08 05:56:00,
2013-03-08 00:58:00,57.7,52.0,30.21,North,357,0.0,0.0,81,0.00,,---,0.00,VWS V14.01,2013-03-08 05:58:00,
2013-03-08 01:01:00,57.7,52.0,30.21,North,357,0.0,0.0,81,0.00,,---,0.00,VWS V14.01,2013-03-08 06:01:00,
2013-03-08 01:03:00,57.7,52.0,30.21,North,357,0.0,0.0,81,0.00,,---,0.00,VWS V14.01,2013-03-08 06:03:00,
2013-03-08 01:06:00,57.7,52.0,30.21,North,357,2.2,2.2,81,0.00,,---,0.00,VWS V14.01,2013-03-08 06:06:00,
2013-03-08 01:09:00,57.7,52.0,30.21,NW,325,3.1,3.1,81,0.00,,---,0.00,VWS V14.01,2013-03-08 06:09:00,
2013-03-08 01:11:00,57.7,52.0,30.21,NW,325,3.1,3.1,81,0.00,,---,0.00,VWS V14.01,2013-03-08 06:11:00,
2013-03-08 01:14:00,57.7,52.0,30.21,NW,325,3.1,3.1,81,0.00,,---,0.00,VWS V14.01,2013-03-08 06:14:00,
2013-03-08 01:16:00,57.7,52.0,30.21,NW,325,3.1,3.1,81,0.00,,---,0.00,VWS V14.01,2013-03-08 06:16:00,
2013-03-08 01:19:00,57.6,51.5,30.21,NW,325,3.1,3.1,80,0.00,,---,0.00,VWS V14.01,2013-03-08 06:19:00,
2013-03-08 01:21:00,57.6,51.5,30.21,NW,325,3.1,3.1,80,0.00,,---,0.00,VWS V14.01,2013-03-08 06:21:00,
2013-03-08 01:24:00,57.6,51.5,30.21,NW,325,3.1,3.1,80,0.00,,---,0.00,VWS V14.01,2013-03-08 06:24:00,
2013-03-08 01:26:00,57.6,51.5,30.21,NW,325,3.1,3.1,80,0.00,,---,0.00,VWS V14.01,2013-03-08 06:26:00,
2013-03-08 01:29:00,57.6,51.5,30.21,NW,325,3.1,3.1,80,0.00,,---,0.00,VWS V14.01,2013-03-08 06:29:00,
2013-03-08 01:31:00,57.6,51.5,30.21,NW,325,3.1,3.1,80,0.00,,---,0.00,VWS V14.01,2013-03-08 06:31:00,
2013-03-08 01:34:00,57.6,51.5,30.21,NW,325,3.1,3.1,80,0.00,,---,0.00,VWS V14.01,2013-03-08 06:34:00,
2013-03-08 01:36:00,57.6,51.5,30.21,NW,325,3.1,3.1,80,0.00,,---,0.00,VWS V14.01,2013-03-08 06:36:00,
2013-03-08 01:39:00,57.6,51.5,30.21,NW,325,3.1,3.1,80,0.00,,---,0.00,VWS V14.01,2013-03-08 06:39:00,
2013-03-08 01:41:00,57.6,51.8,30.21,NW,325,3.1,3.1,81,0.00,,---,0.00,VWS V14.01,2013-03-08 06:41:00,
2013-03-08 01:44:00,57.4,51.3,30.21,NW,325,3.1,3.1,80,0.00,,---,0.00,VWS V14.01,2013-03-08 06:44:00,
2013-03-08 01:46:00,57.4,51.3,30.21,NW,325,3.1,3.1,80,0.00,,---,0.00,VWS V14.01,2013-03-08 06:46:00,
2013-03-08 01:50:00,57.4,51.3,30.21,NW,325,3.1,3.1,80,0.00,,---,0.00,VWS V14.01,2013-03-08 06:50:00,
2013-03-08 01:51:00,57.4,51.3,30.21,NW,325,3.1,3.1,80,0.00,,---,0.00,VWS V14.01,2013-03-08 06:51:00,
2013-03-08 01:55:00,57.4,51.3,30.21,NW,325,3.1,3.1,80,0.00,,---,0.00,VWS V14.01,2013-03-08 06:55:00,
2013-03-08 01:56:00,57.4,51.3,30.21,NW,325,3.1,3.1,80,0.00,,---,0.00,VWS V14.01,2013-03-08 06:56:00,
2013-03-08 02:00:00,57.4,51.3,30.21,NW,325,3.1,3.1,80,0.00,,---,0.00,VWS V14.01,2013-03-08 07:00:00,
2013-03-08 02:01:00,57.4,51.3,30.21,NW,325,3.1,3.1,80,0.00,,---,0.00,VWS V14.01,2013-03-08 07:01:00,
2013-03-08 02:05:00,57.2,51.1,30.21,NW,325,3.1,3.1,80,0.00,,---,0.00,VWS V14.01,2013-03-08 07:05:00,
2013-03-08 02:06:00,57.2,51.1,30.21,NW,325,3.1,3.1,80,0.00,,---,0.00,VWS V14.01,2013-03-08 07:06:00,
2013-03-08 02:10:00,57.2,51.1,30.21,NW,325,3.1,3.1,80,0.00,,---,0.00,VWS V14.01,2013-03-08 07:10:00,
2013-03-08 02:11:00,57.2,51.4,30.21,NW,325,3.1,3.1,81,0.00,,---,0.00,VWS V14.01,2013-03-08 07:11:00,
2013-03-08 02:15:00,57.2,51.4,30.21,NW,304,0.0,0.0,81,0.00,,---,0.00,VWS V14.01,2013-03-08 07:15:00,
2013-03-08 02:16:00,57.2,51.4,30.21,NW,304,0.0,0.0,81,0.00,,---,0.00,VWS V14.01,2013-03-08 07:16:00,
2013-03-08 02:21:00,57.0,51.3,30.21,NW,304,0.0,0.0,81,0.00,,---,0.00,VWS V14.01,2013-03-08 07:21:00,
2013-03-08 02:26:00,57.0,51.3,30.21,NW,304,0.0,0.0,81,0.00,,---,0.00,VWS V14.01,2013-03-08 07:26:00,
2013-03-08 02:27:00,57.0,51.3,30.21,NW,304,0.0,0.0,81,0.00,,---,0.00,VWS V14.01,2013-03-08 07:27:00,
2013-03-08 02:31:00,56.8,51.1,30.18,NW,304,0.0,0.0,81,0.00,,---,0.00,VWS V14.01,2013-03-08 07:31:00,
2013-03-08 02:32:00,56.8,51.1,30.18,NW,304,0.0,0.0,81,0.00,,---,0.00,VWS V14.01,2013-03-08 07:32:00,
2013-03-08 02:36:00,56.8,51.1,30.18,NW,304,0.0,0.0,81,0.00,,---,0.00,VWS V14.01,2013-03-08 07:36:00,
2013-03-08 02:37:00,56.8,51.1,30.18,NW,304,0.0,0.0,81,0.00,,---,0.00,VWS V14.01,2013-03-08 07:37:00,
2013-03-08 02:41:00,56.8,51.1,30.18,NW,304,0.0,0.0,81,0.00,,---,0.00,VWS V14.01,2013-03-08 07:41:00,
2013-03-08 02:42:00,56.8,51.1,30.18,NW,304,0.0,0.0,81,0.00,,---,0.00,VWS V14.01,2013-03-08 07:42:00,
2013-03-08 02:46:00,56.8,51.1,30.18,NW,304,0.0,0.0,81,0.00,,---,0.00,VWS V14.01,2013-03-08 07:46:00,
2013-03-08 02:47:00,56.8,51.1,30.18,NW,304,0.0,0.0,81,0.00,,---,0.00,VWS V14.01,2013-03-08 07:47:00,
2013-03-08 02:51:00,56.7,50.9,30.18,NW,304,0.0,0.0,81,0.00,,---,0.00,VWS V14.01,2013-03-08 07:51:00,
2013-03-08 02:52:00,56.5,50.7,30.18,NW,304,0.0,0.0,81,0.00,,---,0.00,VWS V14.01,2013-03-08 07:52:00,
2013-03-08 02:56:00,56.7,50.9,30.18,NW,304,0.0,0.0,81,0.00,,---,0.00,VWS V14.01,2013-03-08 07:56:00,
2013-03-08 02:57:00,56.5,50.7,30.18,NW,304,0.0,0.0,81,0.00,,---,0.00,VWS V14.01,2013-03-08 07:57:00,
2013-03-08 03:01:00,56.5,50.7,30.18,NW,304,0.0,0.0,81,0.00,,---,0.00,VWS V14.01,2013-03-08 08:01:00,
2013-03-08 03:02:00,56.5,50.7,30.18,NW,304,0.0,0.0,81,0.00,,---,0.00,VWS V14.01,2013-03-08 08:02:00,
2013-03-08 03:07:00,56.3,50.9,30.18,NW,304,0.0,0.0,82,0.00,,---,0.00,VWS V14.01,2013-03-08 08:07:00,
2013-03-08 03:12:00,56.3,50.9,30.18,NW,304,0.0,0.0,82,0.00,,---,0.00,VWS V14.01,2013-03-08 08:12:00,
2013-03-08 03:17:00,56.3,50.9,30.18,NW,304,0.0,0.0,82,0.00,,---,0.00,VWS V14.01,2013-03-08 08:17:00,
2013-03-08 03:22:00,56.1,50.4,30.18,NW,304,0.0,0.0,81,0.00,,---,0.00,VWS V14.01,2013-03-08 08:22:00,
2013-03-08 03:27:00,56.3,50.5,30.18,NW,304,0.0,0.0,81,0.00,,---,0.00,VWS V14.01,2013-03-08 08:27:00,
2013-03-08 03:28:00,56.3,50.5,30.18,NW,304,0.0,0.0,81,0.00,,---,0.00,VWS V14.01,2013-03-08 08:28:00,
2013-03-08 03:32:00,56.3,50.5,30.18,NW,304,0.0,0.0,81,0.00,,---,0.00,VWS V14.01,2013-03-08 08:32:00,
2013-03-08 03:33:00,56.3,50.5,30.18,NW,304,0.0,0.0,81,0.00,,---,0.00,VWS V14.01,2013-03-08 08:33:00,
2013-03-08 03:37:00,56.1,50.4,30.18,NW,304,0.0,0.0,81,0.00,,---,0.00,VWS V14.01,2013-03-08 08:37:00,
2013-03-08 03:38:00,56.1,50.4,30.18,NW,304,0.0,0.0,81,0.00,,---,0.00,VWS V14.01,2013-03-08 08:38:00,
2013-03-08 03:42:00,55.9,49.9,30.18,NW,304,0.0,0.0,80,0.00,,---,0.00,VWS V14.01,2013-03-08 08:42:00,
2013-03-08 03:43:00,55.9,49.9,30.18,NW,304,0.0,0.0,80,0.00,,---,0.00,VWS V14.01,2013-03-08 08:43:00,
2013-03-08 03:47:00,55.9,49.9,30.18,NW,304,0.0,0.0,80,0.00,,---,0.00,VWS V14.01,2013-03-08 08:47:00,
2013-03-08 03:48:00,55.9,49.9,30.18,NW,304,0.0,0.0,80,0.00,,---,0.00,VWS V14.01,2013-03-08 08:48:00,
2013-03-08 03:52:00,55.9,49.9,30.18,NW,304,0.0,0.0,80,0.00,,---,0.00,VWS V14.01,2013-03-08 08:52:00,
2013-03-08 03:53:00,55.9,49.9,30.18,NW,304,0.0,0.0,80,0.00,,---,0.00,VWS V14.01,2013-03-08 08:53:00,
2013-03-08 03:57:00,55.9,49.9,30.18,NW,304,0.0,0.0,80,0.00,,---,0.00,VWS V14.01,2013-03-08 08:57:00,
2013-03-08 03:58:00,55.9,49.9,30.18,NW,304,0.0,0.0,80,0.00,,---,0.00,VWS V14.01,2013-03-08 08:58:00,
2013-03-08 04:02:00,55.9,49.9,30.18,NW,304,0.0,0.0,80,0.00,,---,0.00,VWS V14.01,2013-03-08 09:02:00,
2013-03-08 04:03:00,55.9,49.9,30.18,NW,304,0.0,0.0,80,0.00,,---,0.00,VWS V14.01,2013-03-08 09:03:00,
2013-03-08 04:04:00,55.9,49.9,30.18,NW,304,0.0,0.0,80,0.00,,---,0.00,VWS V14.01,2013-03-08 09:04:00,
2013-03-08 04:08:00,55.9,49.9,30.18,NW,304,0.0,0.0,80,0.00,,---,0.00,VWS V14.01,2013-03-08 09:08:00,
2013-03-08 04:09:00,55.9,49.9,30.18,NW,304,0.0,0.0,80,0.00,,---,0.00,VWS V14.01,2013-03-08 09:09:00,
2013-03-08 04:13:00,55.9,49.9,30.18,NW,304,0.0,0.0,80,0.00,,---,0.00,VWS V14.01,2013-03-08 09:13:00,
2013-03-08 04:14:00,55.9,49.9,30.18,NW,304,0.0,0.0,80,0.00,,---,0.00,VWS V14.01,2013-03-08 09:14:00,
2013-03-08 04:18:00,55.8,49.4,30.18,NW,304,0.0,0.0,79,0.00,,---,0.00,VWS V14.01,2013-03-08 09:18:00,
2013-03-08 04:19:00,55.8,49.4,30.18,NW,304,0.0,0.0,79,0.00,,---,0.00,VWS V14.01,2013-03-08 09:19:00,
2013-03-08 04:23:00,55.8,49.4,30.18,NW,304,0.0,0.0,79,0.00,,---,0.00,VWS V14.01,2013-03-08 09:23:00,
2013-03-08 04:24:00,55.8,49.4,30.18,NW,304,0.0,0.0,79,0.00,,---,0.00,VWS V14.01,2013-03-08 09:24:00,
2013-03-08 04:28:00,55.6,49.2,30.18,NW,304,0.0,0.0,79,0.00,,---,0.00,VWS V14.01,2013-03-08 09:28:00,
2013-03-08 04:29:00,55.6,49.2,30.18,NW,304,0.0,0.0,79,0.00,,---,0.00,VWS V14.01,2013-03-08 09:29:00,
2013-03-08 04:33:00,55.6,49.2,30.18,NW,304,0.0,0.0,79,0.00,,---,0.00,VWS V14.01,2013-03-08 09:33:00,
2013-03-08 04:34:00,55.6,49.2,30.18,NW,304,0.0,0.0,79,0.00,,---,0.00,VWS V14.01,2013-03-08 09:34:00,
2013-03-08 04:38:00,55.6,49.2,30.18,NW,304,0.0,0.0,79,0.00,,---,0.00,VWS V14.01,2013-03-08 09:38:00,
2013-03-08 04:39:00,55.6,49.2,30.18,NW,304,0.0,0.0,79,0.00,,---,0.00,VWS V14.01,2013-03-08 09:39:00,
2013-03-08 04:40:00,55.6,49.2,30.18,NW,304,0.0,0.0,79,0.00,,---,0.00,VWS V14.01,2013-03-08 09:40:00,
2013-03-08 04:43:00,55.6,48.8,30.18,NW,304,0.0,0.0,78,0.00,,---,0.00,VWS V14.01,2013-03-08 09:43:00,
2013-03-08 04:44:00,55.6,48.8,30.18,NW,304,0.0,0.0,78,0.00,,---,0.00,VWS V14.01,2013-03-08 09:44:00,
2013-03-08 04:45:00,55.6,48.8,30.18,NW,304,0.0,0.0,78,0.00,,---,0.00,VWS V14.01,2013-03-08 09:45:00,
2013-03-08 04:48:00,55.6,48.8,69.81,NW,304,0.0,0.0,78,0.00,,---,0.00,VWS V14.01,2013-03-08 09:48:00,
2013-03-08 04:49:00,55.6,48.8,69.81,NW,304,0.0,0.0,78,0.00,,---,0.00,VWS V14.01,2013-03-08 09:49:00,
2013-03-08 04:50:00,55.6,48.8,69.81,NW,304,0.0,0.0,78,0.00,,---,0.00,VWS V14.01,2013-03-08 09:50:00,
2013-03-08 04:53:00,55.6,48.8,69.81,NW,304,0.0,0.0,78,0.00,,---,0.00,VWS V14.01,2013-03-08 09:53:00,
2013-03-08 04:54:00,55.6,48.8,69.81,NW,304,0.0,0.0,78,0.00,,---,0.00,VWS V14.01,2013-03-08 09:54:00,
2013-03-08 04:55:00,55.6,48.8,69.81,NW,304,0.0,0.0,78,0.00,,---,0.00,VWS V14.01,2013-03-08 09:55:00,
2013-03-08 04:58:00,55.6,48.8,69.81,NW,304,0.0,0.0,78,0.00,,---,0.00,VWS V14.01,2013-03-08 09:58:00,
2013-03-08 04:59:00,55.6,48.8,69.81,NW,304,0.0,0.0,78,0.00,,---,0.00,VWS V14.01,2013-03-08 09:59:00,
2013-03-08 05:00:00,55.6,48.8,69.81,NW,304,0.0,0.0,78,0.00,,---,0.00,VWS V14.01,2013-03-08 10:00:00,
2013-03-08 05:04:00,55.6,48.8,69.81,NW,304,0.0,0.0,78,0.00,,---,0.00,VWS V14.01,2013-03-08 10:04:00,
2013-03-08 05:05:00,55.4,48.3,69.81,NW,304,0.0,0.0,77,0.00,,---,0.00,VWS V14.01,2013-03-08 10:05:00,
2013-03-08 05:09:00,55.4,48.3,69.81,NW,304,0.0,0.0,77,0.00,,---,0.00,VWS V14.01,2013-03-08 10:09:00,
2013-03-08 05:10:00,55.4,48.3,69.81,NW,304,0.0,0.0,77,0.00,,---,0.00,VWS V14.01,2013-03-08 10:10:00,
2013-03-08 05:11:00,55.4,48.3,69.81,NW,304,0.0,0.0,77,0.00,,---,0.00,VWS V14.01,2013-03-08 10:11:00,
2013-03-08 05:14:00,55.4,48.3,69.81,NW,304,0.0,0.0,77,0.00,,---,0.00,VWS V14.01,2013-03-08 10:14:00,
2013-03-08 05:15:00,55.4,48.3,69.81,NW,304,0.0,0.0,77,0.00,,---,0.00,VWS V14.01,2013-03-08 10:15:00,
2013-03-08 05:16:00,55.4,48.3,69.78,NW,304,0.0,0.0,77,0.00,,---,0.00,VWS V14.01,2013-03-08 10:16:00,
2013-03-08 05:19:00,55.4,48.3,69.78,NW,304,0.0,0.0,77,0.00,,---,0.00,VWS V14.01,2013-03-08 10:19:00,
2013-03-08 05:20:00,55.4,48.3,69.78,NW,304,0.0,0.0,77,0.00,,---,0.00,VWS V14.01,2013-03-08 10:20:00,
2013-03-08 05:21:00,55.4,48.3,69.78,NW,304,0.0,0.0,77,0.00,,---,0.00,VWS V14.01,2013-03-08 10:21:00,
2013-03-08 05:24:00,55.4,48.0,69.78,NW,304,0.0,0.0,76,0.00,,---,0.00,VWS V14.01,2013-03-08 10:24:00,
2013-03-08 05:25:00,55.4,48.0,69.78,NW,304,0.0,0.0,76,0.00,,---,0.00,VWS V14.01,2013-03-08 10:25:00,
2013-03-08 05:26:00,55.4,48.0,69.78,NW,304,0.0,0.0,76,0.00,,---,0.00,VWS V14.01,2013-03-08 10:26:00,
2013-03-08 05:29:00,55.4,48.0,69.78,NW,304,0.0,0.0,76,0.00,,---,0.00,VWS V14.01,2013-03-08 10:29:00,
2013-03-08 05:30:00,55.4,48.0,69.78,NW,304,0.0,0.0,76,0.00,,---,0.00,VWS V14.01,2013-03-08 10:30:00,
2013-03-08 05:31:00,55.4,48.0,69.78,NW,304,0.0,0.0,76,0.00,,---,0.00,VWS V14.01,2013-03-08 10:31:00,
2013-03-08 05:34:00,55.4,48.0,69.78,NW,304,0.0,0.0,76,0.00,,---,0.00,VWS V14.01,2013-03-08 10:34:00,
2013-03-08 05:35:00,55.4,48.0,69.78,NW,304,0.0,0.0,76,0.00,,---,0.00,VWS V14.01,2013-03-08 10:35:00,
2013-03-08 05:36:00,55.4,48.0,69.78,NW,304,0.0,0.0,76,0.00,,---,0.00,VWS V14.01,2013-03-08 10:36:00,
2013-03-08 05:39:00,55.4,48.0,69.78,NW,304,0.0,0.0,76,0.00,,---,0.00,VWS V14.01,2013-03-08 10:39:00,
2013-03-08 05:41:00,55.2,48.2,69.78,NW,304,0.0,0.0,77,0.00,,---,0.00,VWS V14.01,2013-03-08 10:41:00,
2013-03-08 05:45:00,55.2,48.2,69.78,NW,304,0.0,0.0,77,0.00,,---,0.00,VWS V14.01,2013-03-08 10:45:00,
2013-03-08 05:46:00,55.2,48.2,69.78,NW,304,0.0,0.0,77,0.00,,---,0.00,VWS V14.01,2013-03-08 10:46:00,
2013-03-08 05:50:00,55.2,48.2,69.78,NW,304,0.0,0.0,77,0.00,,---,0.00,VWS V14.01,2013-03-08 10:50:00,
2013-03-08 05:51:00,55.2,48.2,69.78,NW,304,0.0,0.0,77,0.00,,---,0.00,VWS V14.01,2013-03-08 10:51:00,
2013-03-08 05:52:00,55.2,48.2,69.78,NW,304,0.0,0.0,77,0.00,,---,0.00,VWS V14.01,2013-03-08 10:52:00,
2013-03-08 05:55:00,55.2,48.2,69.78,NW,304,0.0,0.0,77,0.00,,---,0.00,VWS V14.01,2013-03-08 10:55:00,
2013-03-08 05:56:00,55.2,48.2,69.78,NW,304,0.0,0.0,77,0.00,,---,0.00,VWS V14.01,2013-03-08 10:56:00,
2013-03-08 05:57:00,55.2,48.2,69.78,NW,304,0.0,0.0,77,0.00,,---,0.00,VWS V14.01,2013-03-08 10:57:00,
2013-03-08 06:00:00,55.0,48.0,69.78,NW,304,0.0,0.0,77,0.00,,---,0.00,VWS V14.01,2013-03-08 11:00:00,
2013-03-08 06:01:00,55.0,48.0,69.78,NW,304,0.0,0.0,77,0.00,,---,0.00,VWS V14.01,2013-03-08 11:01:00,
2013-03-08 06:02:00,55.0,48.0,69.78,NW,304,0.0,0.0,77,0.00,,---,0.00,VWS V14.01,2013-03-08 11:02:00,
2013-03-08 06:05:00,55.0,48.0,69.78,NW,304,0.0,0.0,77,0.00,,---,0.00,VWS V14.01,2013-03-08 11:05:00,
2013-03-08 06:06:00,55.0,48.0,69.78,NW,304,0.0,0.0,77,0.00,,---,0.00,VWS V14.01,2013-03-08 11:06:00,
2013-03-08 06:07:00,54.9,47.8,69.78,NW,304,0.0,0.0,77,0.00,,---,0.00,VWS V14.01,2013-03-08 11:07:00,
2013-03-08 06:10:00,54.9,47.8,69.78,NW,304,0.0,0.0,77,0.00,,---,0.00,VWS V14.01,2013-03-08 11:10:00,
2013-03-08 06:11:00,54.9,47.8,69.78,NW,304,0.0,0.0,77,0.00,,---,0.00,VWS V14.01,2013-03-08 11:11:00,
2013-03-08 06:12:00,54.9,47.8,69.78,NW,304,0.0,0.0,77,0.00,,---,0.00,VWS V14.01,2013-03-08 11:12:00,
2013-03-08 06:15:00,54.9,47.8,69.78,NW,304,0.0,0.0,77,0.00,,---,0.00,VWS V14.01,2013-03-08 11:15:00,
2013-03-08 06:16:00,54.9,47.8,69.78,NW,304,0.0,0.0,77,0.00,,---,0.00,VWS V14.01,2013-03-08 11:16:00,
2013-03-08 06:17:00,54.9,47.8,69.78,NW,304,0.0,0.0,77,0.00,,---,0.00,VWS V14.01,2013-03-08 11:17:00,
2013-03-08 06:21:00,54.9,47.8,69.78,NW,304,0.0,0.0,77,0.00,,---,0.00,VWS V14.01,2013-03-08 11:21:00,
2013-03-08 06:22:00,54.9,47.8,69.78,NW,304,0.0,0.0,77,0.00,,---,0.00,VWS V14.01,2013-03-08 11:22:00,
2013-03-08 06:26:00,54.9,48.1,69.78,NW,304,0.0,0.0,78,0.00,,---,0.00,VWS V14.01,2013-03-08 11:26:00,
2013-03-08 06:27:00,54.9,48.1,69.78,NW,304,0.0,0.0,78,0.00,,---,0.00,VWS V14.01,2013-03-08 11:27:00,
2013-03-08 06:31:00,54.9,48.1,69.78,NW,304,0.0,0.0,78,0.00,,---,0.00,VWS V14.01,2013-03-08 11:31:00,
2013-03-08 06:32:00,54.9,48.1,69.78,NW,304,0.0,0.0,78,0.00,,---,0.00,VWS V14.01,2013-03-08 11:32:00,
2013-03-08 06:36:00,54.7,48.0,69.78,NW,304,0.0,0.0,78,0.00,,---,0.00,VWS V14.01,2013-03-08 11:36:00,
2013-03-08 06:37:00,54.7,48.0,69.78,NW,304,0.0,0.0,78,0.00,,---,0.00,VWS V14.01,2013-03-08 11:37:00,
2013-03-08 06:41:00,54.7,48.0,30.21,NW,304,0.0,0.0,78,0.00,,---,0.00,VWS V14.01,2013-03-08 11:41:00,
2013-03-08 06:42:00,54.7,48.0,30.21,NW,304,0.0,0.0,78,0.00,,---,0.00,VWS V14.01,2013-03-08 11:42:00,
2013-03-08 06:43:00,54.7,48.0,30.21,NW,304,0.0,0.0,78,0.00,,---,0.00,VWS V14.01,2013-03-08 11:43:00,
2013-03-08 06:46:00,54.7,48.0,30.21,NW,304,0.0,0.0,78,0.00,,---,0.00,VWS V14.01,2013-03-08 11:46:00,
2013-03-08 06:47:00,54.7,48.0,30.21,NW,304,0.0,0.0,78,0.00,,---,0.00,VWS V14.01,2013-03-08 11:47:00,
2013-03-08 06:48:00,54.7,48.0,30.21,NW,304,0.0,0.0,78,0.00,,---,0.00,VWS V14.01,2013-03-08 11:48:00,
2013-03-08 06:51:00,54.7,48.0,30.21,NW,304,0.0,0.0,78,0.00,,---,0.00,VWS V14.01,2013-03-08 11:51:00,
2013-03-08 06:52:00,54.7,48.0,30.21,NW,304,0.0,0.0,78,0.00,,---,0.00,VWS V14.01,2013-03-08 11:52:00,
2013-03-08 06:53:00,54.7,48.0,30.21,NW,304,0.0,0.0,78,0.00,,---,0.00,VWS V14.01,2013-03-08 11:53:00,
2013-03-08 06:56:00,54.7,48.0,30.21,NW,304,0.0,0.0,78,0.00,,---,0.00,VWS V14.01,2013-03-08 11:56:00,
2013-03-08 06:57:00,54.7,48.0,30.21,NW,304,0.0,0.0,78,0.00,,---,0.00,VWS V14.01,2013-03-08 11:57:00,
2013-03-08 06:58:00,54.7,48.0,30.21,NW,304,0.0,0.0,78,0.00,,---,0.00,VWS V14.01,2013-03-08 11:58:00,
2013-03-08 07:01:00,54.7,48.0,30.21,NW,304,0.0,0.0,78,0.00,,---,0.00,VWS V14.01,2013-03-08 12:01:00,
2013-03-08 07:02:00,54.7,48.0,30.21,NW,304,0.0,0.0,78,0.00,,---,0.00,VWS V14.01,2013-03-08 12:02:00,
2013-03-08 07:03:00,54.7,48.0,30.21,NW,304,0.0,0.0,78,0.00,,---,0.00,VWS V14.01,2013-03-08 12:03:00,
2013-03-08 07:06:00,54.7,48.0,30.21,NW,304,0.0,0.0,78,0.00,,---,0.00,VWS V14.01,2013-03-08 12:06:00,
2013-03-08 07:07:00,54.7,48.0,30.21,NW,304,0.0,0.0,78,0.00,,---,0.00,VWS V14.01,2013-03-08 12:07:00,
2013-03-08 07:08:00,54.7,48.0,30.21,NW,304,0.0,0.0,78,0.00,,---,0.00,VWS V14.01,2013-03-08 12:08:00,
2013-03-08 07:11:00,54.7,48.0,30.21,NW,304,0.0,0.0,78,0.00,,---,0.00,VWS V14.01,2013-03-08 12:11:00,
2013-03-08 07:13:00,54.9,48.5,30.21,NW,304,0.0,0.0,79,0.00,,---,0.00,VWS V14.01,2013-03-08 12:13:00,
2013-03-08 07:16:00,54.9,48.5,30.21,NW,304,0.0,0.0,79,0.00,,---,0.00,VWS V14.01,2013-03-08 12:16:00,
2013-03-08 07:18:00,54.9,48.5,30.21,NW,304,0.0,0.0,79,0.00,,---,0.00,VWS V14.01,2013-03-08 12:18:00,
2013-03-08 07:21:00,55.0,48.7,30.21,NW,304,0.0,0.0,79,0.00,,---,0.00,VWS V14.01,2013-03-08 12:21:00,
2013-03-08 07:23:00,55.0,48.7,30.21,NW,304,0.0,0.0,79,0.00,,---,0.00,VWS V14.01,2013-03-08 12:23:00,
2013-03-08 07:26:00,55.0,48.7,30.21,NW,304,0.0,0.0,79,0.00,,---,0.00,VWS V14.01,2013-03-08 12:26:00,
2013-03-08 07:28:00,55.4,49.0,30.21,NW,304,0.0,0.0,79,0.00,,---,0.00,VWS V14.01,2013-03-08 12:28:00,
2013-03-08 07:31:00,55.6,49.2,30.21,NW,304,0.0,0.0,79,0.00,,---,0.00,VWS V14.01,2013-03-08 12:31:00,
2013-03-08 07:33:00,55.6,49.2,30.21,NW,304,0.0,0.0,79,0.00,,---,0.00,VWS V14.01,2013-03-08 12:33:00,
2013-03-08 07:36:00,55.6,49.2,30.21,NW,304,0.0,0.0,79,0.00,,---,0.00,VWS V14.01,2013-03-08 12:36:00,
2013-03-08 07:38:00,55.6,49.2,30.21,NW,304,0.0,0.0,79,0.00,,---,0.00,VWS V14.01,2013-03-08 12:38:00,
2013-03-08 07:39:00,55.6,49.2,30.21,NW,304,0.0,0.0,79,0.00,,---,0.00,VWS V14.01,2013-03-08 12:39:00,
2013-03-08 07:42:00,56.1,49.4,30.21,NW,304,0.0,0.0,78,0.00,,---,0.00,VWS V14.01,2013-03-08 12:42:00,
2013-03-08 07:43:00,56.1,49.4,30.21,NW,304,0.0,0.0,78,0.00,,---,0.00,VWS V14.01,2013-03-08 12:43:00,
2013-03-08 07:44:00,56.1,49.4,30.21,NW,304,0.0,0.0,78,0.00,,---,0.00,VWS V14.01,2013-03-08 12:44:00,
2013-03-08 07:47:00,56.1,49.4,30.21,NW,304,0.0,0.0,78,0.00,,---,0.00,VWS V14.01,2013-03-08 12:47:00,
2013-03-08 07:48:00,56.7,49.9,30.21,NW,304,0.0,0.0,78,0.00,,---,0.00,VWS V14.01,2013-03-08 12:48:00,
2013-03-08 07:49:00,56.7,49.9,30.21,NW,304,0.0,0.0,78,0.00,,---,0.00,VWS V14.01,2013-03-08 12:49:00,
2013-03-08 07:52:00,56.8,50.1,30.24,NW,304,0.0,0.0,78,0.00,,---,0.00,VWS V14.01,2013-03-08 12:52:00,
2013-03-08 07:53:00,56.8,50.1,30.24,NW,304,0.0,0.0,78,0.00,,---,0.00,VWS V14.01,2013-03-08 12:53:00,
2013-03-08 07:54:00,56.8,50.1,30.24,NW,304,0.0,0.0,78,0.00,,---,0.00,VWS V14.01,2013-03-08 12:54:00,
2013-03-08 07:57:00,56.8,50.1,30.24,NW,304,0.0,0.0,78,0.00,,---,0.00,VWS V14.01,2013-03-08 12:57:00,
2013-03-08 07:58:00,56.8,50.1,30.24,NW,304,0.0,0.0,78,0.00,,---,0.00,VWS V14.01,2013-03-08 12:58:00,
2013-03-08 07:59:00,56.8,50.1,30.24,NW,304,0.0,0.0,78,0.00,,---,0.00,VWS V14.01,2013-03-08 12:59:00,
2013-03-08 08:02:00,56.8,50.1,30.24,NW,304,0.0,0.0,78,0.00,,---,0.00,VWS V14.01,2013-03-08 13:02:00,
2013-03-08 08:03:00,56.8,50.1,30.24,NW,304,0.0,0.0,78,0.00,,---,0.00,VWS V14.01,2013-03-08 13:03:00,
2013-03-08 08:04:00,56.8,50.1,30.24,NW,304,0.0,0.0,78,0.00,,---,0.00,VWS V14.01,2013-03-08 13:04:00,
2013-03-08 08:07:00,56.8,50.1,30.24,NW,304,0.0,0.0,78,0.00,,---,0.00,VWS V14.01,2013-03-08 13:07:00,
2013-03-08 08:09:00,56.8,50.1,30.24,NW,304,0.0,0.0,78,0.00,,---,0.00,VWS V14.01,2013-03-08 13:09:00,
2013-03-08 08:12:00,56.8,50.1,30.24,NW,304,0.0,0.0,78,0.00,,---,0.00,VWS V14.01,2013-03-08 13:12:00,
2013-03-08 08:14:00,56.8,50.1,30.24,NW,304,0.0,0.0,78,0.00,,---,0.00,VWS V14.01,2013-03-08 13:14:00,
2013-03-08 08:17:00,56.8,50.1,30.24,NW,304,0.0,0.0,78,0.00,,---,0.00,VWS V14.01,2013-03-08 13:17:00,
2013-03-08 08:19:00,56.8,50.1,30.24,NW,304,0.0,0.0,78,0.00,,---,0.00,VWS V14.01,2013-03-08 13:19:00,
2013-03-08 08:22:00,56.8,50.1,30.24,NW,304,0.0,0.0,78,0.00,,---,0.00,VWS V14.01,2013-03-08 13:22:00,
2013-03-08 08:24:00,56.8,50.1,30.24,NW,304,0.0,0.0,78,0.00,,---,0.00,VWS V14.01,2013-03-08 13:24:00,
2013-03-08 08:27:00,56.8,50.1,30.24,NW,304,0.0,0.0,78,0.00,,---,0.00,VWS V14.01,2013-03-08 13:27:00,
2013-03-08 08:29:00,56.8,50.1,30.24,NW,304,0.0,0.0,78,0.00,,---,0.00,VWS V14.01,2013-03-08 13:29:00,
2013-03-08 08:32:00,56.8,50.1,30.24,NW,304,0.0,0.0,78,0.00,,---,0.00,VWS V14.01,2013-03-08 13:32:00,
2013-03-08 08:34:00,56.8,50.1,30.24,NW,304,0.0,0.0,78,0.00,,---,0.00,VWS V14.01,2013-03-08 13:34:00,
2013-03-08 08:37:00,56.8,50.1,30.24,NW,304,0.0,0.0,78,0.00,,---,0.00,VWS V14.01,2013-03-08 13:37:00,
2013-03-08 08:39:00,56.8,50.1,30.24,NW,304,0.0,0.0,78,0.00,,---,0.00,VWS V14.01,2013-03-08 13:39:00,
2013-03-08 08:43:00,56.8,50.1,30.24,NW,304,0.0,0.0,78,0.00,,---,0.00,VWS V14.01,2013-03-08 13:43:00,
2013-03-08 08:44:00,56.8,50.1,30.24,NW,304,0.0,0.0,78,0.00,,---,0.00,VWS V14.01,2013-03-08 13:44:00,
2013-03-08 08:48:00,56.8,50.1,30.24,NW,304,0.0,0.0,78,0.00,,---,0.00,VWS V14.01,2013-03-08 13:48:00,
2013-03-08 08:49:00,56.8,50.1,30.24,NW,304,0.0,0.0,78,0.00,,---,0.00,VWS V14.01,2013-03-08 13:49:00,
2013-03-08 08:50:00,56.8,50.1,30.24,NW,304,0.0,0.0,78,0.00,,---,0.00,VWS V14.01,2013-03-08 13:50:00,
2013-03-08 08:53:00,60.6,50.4,30.24,NNW,343,5.8,5.8,69,0.00,,---,0.00,VWS V14.01,2013-03-08 13:53:00,
2013-03-08 08:55:00,60.6,50.4,30.24,NNW,343,5.8,5.8,69,0.00,,---,0.00,VWS V14.01,2013-03-08 13:55:00,
2013-03-08 08:58:00,60.6,50.4,30.24,NNW,343,5.8,5.8,69,0.00,,---,0.00,VWS V14.01,2013-03-08 13:58:00,
2013-03-08 09:00:00,60.6,50.4,30.24,NNW,343,5.8,5.8,69,0.00,,---,0.00,VWS V14.01,2013-03-08 14:00:00,
2013-03-08 09:03:00,60.6,50.4,30.24,NNW,343,5.8,5.8,69,0.00,,---,0.00,VWS V14.01,2013-03-08 14:03:00,
2013-03-08 09:05:00,60.6,50.4,30.24,NNW,343,5.8,5.8,69,0.00,,---,0.00,VWS V14.01,2013-03-08 14:05:00,
2013-03-08 09:08:00,60.6,50.4,30.24,NNW,343,5.8,5.8,69,0.00,,---,0.00,VWS V14.01,2013-03-08 14:08:00,
2013-03-08 09:10:00,60.6,50.4,30.24,NNW,343,5.8,5.8,69,0.00,,---,0.00,VWS V14.01,2013-03-08 14:10:00,
2013-03-08 09:13:00,60.6,50.4,30.24,NNW,343,5.8,5.8,69,0.00,,---,0.00,VWS V14.01,2013-03-08 14:13:00,
2013-03-08 09:15:00,60.6,50.4,30.24,NNW,343,5.8,5.8,69,0.00,,---,0.00,VWS V14.01,2013-03-08 14:15:00,
2013-03-08 09:18:00,60.6,50.4,30.24,NNW,343,5.8,5.8,69,0.00,,---,0.00,VWS V14.01,2013-03-08 14:18:00,
2013-03-08 09:20:00,60.6,50.4,30.24,NNW,343,5.8,5.8,69,0.00,,---,0.00,VWS V14.01,2013-03-08 14:20:00,
2013-03-08 09:21:00,60.6,50.4,30.24,NNW,343,5.8,5.8,69,0.00,,---,0.00,VWS V14.01,2013-03-08 14:21:00,
2013-03-08 09:24:00,60.6,50.4,30.24,NNW,343,5.8,5.8,69,0.00,,---,0.00,VWS V14.01,2013-03-08 14:24:00,
2013-03-08 09:25:00,60.6,50.4,30.24,NNW,343,5.8,5.8,69,0.00,,---,0.00,VWS V14.01,2013-03-08 14:25:00,
2013-03-08 09:26:00,60.6,50.4,30.24,NNW,343,5.8,5.8,69,0.00,,---,0.00,VWS V14.01,2013-03-08 14:26:00,
2013-03-08 09:29:00,60.6,50.4,30.24,NNW,343,5.8,5.8,69,0.00,,---,0.00,VWS V14.01,2013-03-08 14:29:00,
2013-03-08 09:30:00,60.6,50.4,30.24,NNW,343,5.8,5.8,69,0.00,,---,0.00,VWS V14.01,2013-03-08 14:30:00,
2013-03-08 09:31:00,60.6,50.4,30.24,NNW,343,5.8,5.8,69,0.00,,---,0.00,VWS V14.01,2013-03-08 14:31:00,